This demonstration page uses our WeatherBlox Daily Observations layout. Learn more.

Left ArrowRight Arrow

39.51506, -84.39828

Hourly Observations for September 28, 2015

Temp ( °F °C ) Dew Point ( °F °C ) Humidity (%) Winds ( mph kmh ) Pressure ( in mb ) Visibility ( mi km ) Precip ( " mm )
12:15 am 00:15 Partly Cloudy 69 20.8 63 17.3 80 80 Calm 30.09 1019 10 16.0934 0 0
12:35 am 00:35 Clear 69 20.8 64 17.6 82 82 Calm 30.09 1019 10 16.0934 0 0
12:55 am 00:55 Mostly Cloudy 69 20.8 64 17.7 83 83 Calm 30.09 1019 10 16.0934 0 0
1:15 am 01:15 Cloudy 69 20.8 64 17.8 83 83 Calm 30.09 1019 10 16.0934 0 0
1:35 am 01:35 Cloudy 69 20.8 64 18 84 84 E 3 6 30.09 1019 10 16.0934 0 0
1:55 am 01:55 Partly Cloudy 67 19.5 62 16.7 84 84 Calm 30.09 1019 10 16.0934 0 0
2:15 am 02:15 Clear 64 18 60 15.6 86 86 Calm 30.09 1019 10 16.0934 0 0
2:35 am 02:35 Partly Cloudy 64 18 60 15.8 87 87 Calm 30.06 1018 10 16.0934 0 0
2:55 am 02:55 Partly Cloudy 63 17.1 59 15.1 88 88 ENE 3 6 30.06 1018 10 16.0934 0 0
3:15 am 03:15 Mostly Cloudy 64 17.8 60 15.8 88 88 NE 3 6 30.06 1018 10 16.0934 0 0
3:35 am 03:35 Mostly Cloudy 63 17.2 60 15.4 89 89 NE 3 6 30.06 1018 10 16.0934 0 0
3:55 am 03:55 Cloudy 63 17.2 60 15.4 89 89 Calm 30.06 1018 10 16.0934 0 0
4:15 am 04:15 Cloudy 64 18 61 16.1 89 89 Calm 30.06 1018 10 16.0934 0 0
4:35 am 04:35 Cloudy 64 17.5 60 15.7 89 89 NE 3 6 30.03 1017 10 16.0934 0 0
4:55 am 04:55 Cloudy 63 17.3 60 15.5 89 89 Calm 30.06 1018 10 16.0934 0 0
5:15 am 05:15 Cloudy 64 17.5 60 15.6 89 89 Calm 30.06 1018 10 16.0934 0 0
5:35 am 05:35 Partly Cloudy 63 17.1 59 15.2 89 89 Calm 30.06 1018 7 11.26538 0 0
5:55 am 05:55 Mostly Cloudy 63 17.1 59 15.2 89 89 Calm 30.06 1018 10 16.0934 0 0
6:15 am 06:15 Partly Cloudy with Mist and Fog 62 16.6 59 14.9 90 90 Calm 30.06 1018 5 8.0467 0 0
6:35 am 06:35 Mostly Cloudy with Fog 62 16.6 59 14.8 89 89 Calm 30.06 1018 0.5 0.80467 0 0
6:55 am 06:55 Mostly Cloudy with Mist and Fog 61 16.1 58 14.4 90 90 Calm 30.09 1019 0.75 1.207005 0 0
7:15 am 07:15 Clear with Mist and Fog 61 16 57 14.1 89 89 Calm 30.09 1019 2 3.21868 0 0
7:35 am 07:35 Mostly Cloudy with Mist and Fog 61 16 58 14.2 89 89 Calm 30.09 1019 1 1.60934 0 0
7:55 am 07:55 Sunny with Mist and Fog 61 16 58 14.2 89 89 Calm 30.09 1019 5 8.0467 0 0
8:15 am 08:15 Sunny with Mist and Fog 61 16 58 14.2 89 89 Calm 30.12 1020 4 6.43736 0 0
8:35 am 08:35 Partly Cloudy 62 16.9 59 15.2 90 90 Calm 30.09 1019 10 16.0934 0 0
8:55 am 08:55 Partly Cloudy 65 18.1 62 16.4 90 90 Calm 30.06 1018 10 16.0934 0 0
9:15 am 09:15 Sunny 67 19.5 64 17.5 88 88 NE 3 6 30.06 1018 10 16.0934 0 0
9:35 am 09:35 Sunny 69 20.8 65 18.3 86 86 Calm 30.06 1018 10 16.0934 0 0
9:55 am 09:55 Sunny 70 21.2 64 17.5 80 80 SSE 3 6 30.06 1018 10 16.0934 0 0
10:15 am 10:15 Sunny 74 23.6 66 18.7 74 74 S 3 6 30.06 1018 10 16.0934 0 0
10:35 am 10:35 Sunny 74 23.6 64 18 71 71 S 5 7 30.06 1018 10 16.0934 0 0
10:55 am 10:55 Sunny 74 23.6 64 17.9 70 70 Calm 30.06 1018 10 16.0934 0 0
11:15 am 11:15 Sunny 74 23.6 64 17.5 69 69 Calm 30.06 1018 7 11.26538 0 0
11:35 am 11:35 Sunny with Drizzle 77 25.1 65 18.1 65 65 NE 3 6 30.06 1018 10 16.0934 0 0
11:55 am 11:55 Sunny with Drizzle 77 25.1 64 17.6 63 63 E 3 6 30.06 1018 10 16.0934 0 0
12:15 pm 12:15 Sunny 80 26.5 65 18.3 61 61 NE 5 7 30.06 1018 10 16.0934 0 0
12:35 pm 12:35 Sunny 80 26.5 64 18 60 60 NNE 5 7 30.03 1017 10 16.0934 0 0
12:55 pm 12:55 Sunny 80 26.5 64 18 60 60 Calm 30.03 1017 10 16.0934 0 0
1:15 pm 13:15 Sunny 80 26.5 63 17.3 57 57 NNE 3 6 30.03 1017 10 16.0934 0 0
1:35 pm 13:35 Partly Cloudy 80 26.7 63 17.2 56 56 NW 3 6 30.03 1017 10 16.0934 0 0
1:55 pm 13:55 Partly Cloudy 80 26.9 63 17.1 55 55 Calm 30.03 1017 10 16.0934 0 0
2:15 pm 14:15 Partly Cloudy 82 27.8 63 17 52 52 Calm 30 1016 10 16.0934 0 0
2:35 pm 14:35 Partly Cloudy 83 28.6 61 16.3 47 47 ESE 6 9 29.97 1015 10 16.0934 0 0
2:55 pm 14:55 Partly Cloudy 83 28.6 62 16.6 48 48 SE 5 7 29.97 1015 10 16.0934 0 0
3:15 pm 15:15 Partly Cloudy 83 28.6 61 16 46 46 SE 3 6 29.94 1014 10 16.0934 0 0
3:35 pm 15:35 Sunny 83 28.6 61 15.9 46 46 SE 3 6 29.94 1014 10 16.0934 0 0
3:55 pm 15:55 Partly Cloudy 85 29.7 61 16.3 44 44 Calm 29.94 1014 10 16.0934 0 0
4:15 pm 16:15 Partly Cloudy 83 28.6 61 15.9 46 46 W 5 7 29.94 1014 10 16.0934 0 0
4:35 pm 16:35 Partly Cloudy 84 28.7 60 15.5 45 45 Calm 29.94 1014 10 16.0934 0 0
4:55 pm 16:55 Mostly Cloudy 84 28.7 61 16 46 46 SSW 5 7 29.94 1014 7 11.26538 0 0
5:15 pm 17:15 Partly Cloudy 83 28.6 60 15.6 45 45 SW 5 7 29.91 1013 10 16.0934 0 0
5:35 pm 17:35 Partly Cloudy 83 28.5 60 15.5 45 45 S 6 9 29.91 1013 10 16.0934 0 0
5:55 pm 17:55 Sunny 82 28 59 15.2 46 46 SSW 3 6 29.91 1013 10 16.0934 0 0
6:15 pm 18:15 Sunny 81 27.4 60 15.4 48 48 SSW 6 9 29.94 1014 7 11.26538 0 0
6:35 pm 18:35 Sunny 81 27.2 60 15.5 49 49 SSW 3 6 29.94 1014 7 11.26538 0 0
6:55 pm 18:55 Sunny 80 26.5 61 16.3 54 54 Calm 29.94 1014 10 16.0934 0 0
7:15 pm 19:15 Sunny 80 26.5 62 16.6 55 55 Calm 29.94 1014 10 16.0934 0 0
7:35 pm 19:35 Clear 75 24.1 65 18.4 71 71 Calm 29.94 1014 10 16.0934 0 0
7:55 pm 19:55 Partly Cloudy 74 23.6 66 18.7 74 74 Calm 29.97 1015 10 16.0934 0 0
8:15 pm 20:15 Partly Cloudy 74 23.6 66 18.7 74 74 Calm 29.97 1015 10 16.0934 0 0
8:35 pm 20:35 Clear 74 23.6 67 19.2 76 76 Calm 29.97 1015 10 16.0934 0 0
8:55 pm 20:55 Clear 74 23.6 68 19.8 79 79 Calm 29.97 1015 10 16.0934 0 0
9:15 pm 21:15 Partly Cloudy 74 23.6 67 19.6 78 78 Calm 29.97 1015 10 16.0934 0 0
9:35 pm 21:35 Mostly Cloudy 73 22.5 67 19.2 82 82 Calm 29.97 1015 10 16.0934 0 0
9:55 pm 21:55 Mostly Cloudy 74 23.6 67 19.6 78 78 Calm 29.97 1015 10 16.0934 0 0
10:15 pm 22:15 Partly Cloudy 72 22.1 66 19.1 83 83 Calm 29.97 1015 10 16.0934 0 0
10:35 pm 22:35 Partly Cloudy 72 22.3 67 19.4 84 84 Calm 29.97 1015 10 16.0934 0 0
10:55 pm 22:55 Partly Cloudy 72 22.3 67 19.4 84 84 Calm 29.97 1015 10 16.0934 0 0
11:15 pm 23:15 Partly Cloudy 69 20.8 64 18 84 84 Calm 29.97 1015 10 16.0934 0 0
11:35 pm 23:35 Mostly Cloudy 69 20.8 65 18.2 85 85 Calm 29.97 1015 10 16.0934 0 0
11:55 pm 23:55 Cloudy 69 20.8 65 18.1 85 85 Calm 29.97 1015 10 16.0934 0 0

Powered by AerisWeather